Regional Weather Roundup
Issued by NWS Wakefield, VA

Home | Current Version | Previous Version | Graphics & Text | Print | Product List | Glossary On
Versions: 1 2 3 4 5 6 7 8 9 10 11 12 13 14 15 16 17 18 19 20 21 22 23 24 25 26 27 28 29 30 31 32 33 34 35 36 37 38 39 40 41 42 43 44 45 46 47 48 49 50
000
ASUS41 KAKQ 290815
RWRAKQ

REGIONAL WEATHER ROUNDUP
NATIONAL WEATHER SERVICE WAKEFIELD VA
400 AM EDT SUN MAY 29 2016

Note: "fair" indicates few or no clouds below 12,000 feet with no
significant weather and/or obstructions to visibility. * = Denotes
station may not report precipitation (e.g., rain,snow,etc.),
thunder or fog.

VAZ042-051-052>054-056-290900-
NORTHERN VIRGINIA

CITY           SKY/WX    TMP DP  RH WIND       PRES   REMARKS
WASH NATIONAL  MOCLDY    68  62  81 S5        30.13S
DULLES         FAIR      66  61  84 S5        30.13S
FORT BELVOIR   FAIR      62  60  95 CALM      30.13S
QUANTICO       FAIR      66  63  90 NW5       30.13S
FREDERICKSBRG* FAIR      63  63  99 CALM      30.12S
STAFFORD*      FAIR      57  56  94 CALM      30.17S
WARRENTON      FAIR      59  55  85 CALM      30.13S
CULPEPER*      FAIR      63  62  99 CALM      30.14S
MANASSAS*      FAIR      61  61 100 CALM      30.13S
LEESBURG*      FAIR      70  64  83 S5        30.14S
WINCHESTER     FAIR      66  61  82 SW6       30.12S
FRONT ROYAL*   FAIR      63  61  94 S3        30.12S
LURAY*         FAIR      59  59 100 CALM      30.14F FOG
$$

VAZ048-049-060>072-079>083-290900-
CENTRAL AND SOUTH CENTRAL VIRGINIA

CITY           SKY/WX    TMP DP  RH WIND       PRES   REMARKS
RICHMOND       FAIR      65  62  90 CALM      30.12F
CHESTERFIELD*  FAIR      63  52  67 CALM      30.14F
PETERSBURG*    FAIR      61  61 100 CALM      30.13F
HANOVER        FAIR      62  59  90 CALM      30.14F
TAPPAHANNOCK*  FAIR      62  62 100 CALM      30.14S
QUINTON*       FAIR      62  61  98 MISG      30.13S
CHARLOTTSVILLE FAIR      64  61  90 CALM      30.13F
GORDONSVILLE*  FAIR      59  59 100 CALM      30.13S
ORANGE*        FAIR      61  61 100 CALM      30.15S
LOUISA*        FAIR      63  61  94 CALM      30.12S FOG
BUMPASS*       FAIR      60  60  99 CALM      30.13S
FARMVILLE*     FAIR      63  63 100 CALM      30.11S
CREWE*         FAIR      60  60 100 CALM      30.12F
FORT PICKETT*  NOT AVBL
CHASE CITY*    FAIR      66  65  94 CALM      30.12S
CLARKSVILLE*   FAIR      68  68 100 CALM      30.10F
SOUTH HILL*    FAIR      64  64  97 CALM      30.17F
LAWRENCEVILLE* FAIR      66  65  97 CALM      30.11F
EMPORIA*         N/A     63  63 100 CALM      30.13F
$$

VAZ088>098-290900-
SOUTHEAST VIRGINIA

CITY           SKY/WX    TMP DP  RH WIND       PRES   REMARKS
NORFOLK        FAIR      71  68  90 CALM      30.11F
VIRGINIA BEACH MOCLDY    74  68  81 E3        30.11F FOG
NORFOLK NAVAL  FAIR      70  67  90 CALM      30.13S
WEST POINT*    FAIR      61  60  96 CALM      30.14S
SALUDA*        FAIR      65  64  99 CALM      30.13S
NEWPORT NEWS   FAIR      65  64  97 CALM      30.12F
LANGLEY AFB    FAIR      70  69  96 E3        30.12S
FORT EUSTIS    FAIR      67  59  77 CALM      30.11S
WILLIAMSBURG*  FAIR      66  66 100 CALM      30.13F
HR EXEC AP*    CLOUDY   N/A N/A N/A CALM      30.14S
FRANKLIN*      CLOUDY    64  62  94 CALM      30.12F
US460-WAKEFLD  FAIR      62  60  93 CALM      30.12F
$$

VAZ020-022-025-037-045-290900-
WEST CENTRAL AND SOUTHWEST VIRGINIA

CITY           SKY/WX    TMP DP  RH WIND       PRES   REMARKS
STAUNTON*      FAIR      59  58  96 CALM      30.17F
WAYNESBORO*    FAIR      60  58  93 CALM      30.16S
HOT SPRINGS VA FAIR      63  55  76 S6        30.24S
LYNCHBURG      FAIR      64  61  90 CALM      30.15S
DANVILLE       FAIR      66  61  84 E3        30.11F
SOUTH BOSTON*  FAIR      64  63  94 CALM      30.11F
MARTINSVILLE   FAIR      60  60  99 CALM      30.15S
ROANOKE        FAIR      67  61  81 CALM      30.16F
BLACKSBURG     MOCLDY    62  60  93 CALM      30.21F
DUBLIN*        FAIR      62  61  98 CALM      30.19F
MARION*        CLOUDY    62  58  89 CALM      30.23S
HILLSVILLE*    MOCLDY    65  55  69 CALM      30.19S
RICHLANDS*     FAIR      67  61  81 CALM      30.19S
WISE*          FAIR      63  52  67 CALM      30.21S
ABINGDON*      FAIR      67  57  70 CALM      30.17S
$$

MDZ021>025-VAZ099-100-290900-
SOUTHERN MARYLAND AND THE DELMARVA PENINSULA

CITY           SKY/WX    TMP DP  RH WIND       PRES   REMARKS
PATUXENT RIVER CLOUDY    61  58  90 CALM      30.13F
BAY BRIDGE APT CLEAR     70  64  83 S6        30.13S
LEONARDTOWN    CLOUDY    61  59  94 CALM      30.15S
DOVER          CLEAR     64  64 100 S5        30.13F
GEORGETOWN     CLEAR     58  57  97 CALM      30.15F FOG
EASTON         CLEAR     64  64 100 CALM      30.17F
CAMBRIDGE        N/A     57  55  94 CALM      30.13F
SALISBURY      CLOUDY    58  57  97 CALM      30.14F
OCEAN CITY     CLEAR     64  62  93 CALM      30.14F
WALLOPS ISLAND FAIR      66  65  96 CALM      30.14F
ACCOMACK*      FAIR      66  64  94 CALM      30.13S
$$

NCZ012>017-030>032-290900-
NORTH CENTRAL AND EASTERN NORTH CAROLINA

CITY           SKY/WX    TMP DP  RH WIND       PRES   REMARKS
ROANOKE RAPIDS FAIR      63  63 100 CALM      30.11F
RALEIGH        CLOUDY    71  67  87 E5        30.09F
ELIZABETH CITY CLEAR     70  69  97 E3        30.11F
AHOSKIE*       PTCLDY    65  64  94 CALM      30.11F
EDENTON*       FOG      N/A N/A N/A E3        30.11F VSB 1/4
CURRITUCK*     CLEAR     70  70 100 CALM      30.12S
KILL DEVIL HLS MOCLDY    70  69  98 E3        30.10F FOG
MANTEO         NOT AVBL
CAPE HATTERAS  CLEAR     75  72  90 SE9       30.09F
TARBORO*       FAIR      67  66  96 CALM      30.11S
GOLDSBORO      NOT AVBL
WASHINGTON     RAIN      69  68  98 E5        30.09S
GREENVILLE     CLOUDY    70  70 100 CALM      30.10F
NEW BERN       PTCLDY    72  70  93 NE6       30.07F
WILMINGTON     CLOUDY    74  72  93 NE10      30.02F
$$

VAZ048-290900-
ELSEWHERE

CITY           SKY/WX    TMP DP  RH WIND       PRES   REMARKS
HARRISBURG PA  PTCLDY    71  62  73 CALM      30.12R
BALTIMORE      MOCLDY    64  59  83 CALM      30.13S
ANNAPOLIS      PTCLDY    68  65  90 SE5       30.12F
ANDREWS AFB    FAIR      64  60  88 S2        30.13S
PHILADELPHIA   PTCLDY    68  57  68 S5        30.14S
HENDERSON NC   CLOUDY    65  63  93 CALM      30.11S
GREENSBORO     LGT RAIN  70  60  70 CALM      30.10F
ROCKY MOUNT    CLOUDY    68  67  96 CALM      30.10S
$$

VAZ100-290900-
MARINE

STATION/POSITION TIME  TEMP    WIND        PRES    WAVE   SWELL
                       AIR SEA DIR/SP/G            HT/PER HT/PER
                 (UTC) (F)     (DEG/KT/KT) (MB)    (FT/S) (FT/S)
BRANDYWINE LGT   0700   65     200/  7/  7 1021.2F
CAPE MAY NJ      0700   64 69  160/  5/  7 1020.8F
LEWES DE         0700   64 64  250/  1/  2 1021.0F
15NM E FENWICK I 0750   65 63              1020.6F   2/ 8
OCEAN-CITY-INLET 0700   63 59  170/  3/  3 1021.2F
WACHAPREAGUE VA  0700   71 76  140/  5/  6 1019.9F
THOMAS POINT MD  0800   68 68  170/  7/  8 1021.4F
GOOSES REEF MD   0800   68 67  170/  4/  4 1021.2F   0
COVE POINT MD    0700   67     190/  3/  4 1021.1F
SOLOMONS ISLAND  0700   67 68   70/  2/  2   N/A
BISHOPS HEAD MD  0700   71 76  140/  4/  5 1020.6F
PINEY POINT MD   0700          190/  4/  4   N/A
POTOMAC MD       0800   68 70   90/  4/  4 1019.3F   0
CAMBRIDGE MD     0700   64 68  120/  2/  3 1019.9F
LEWISETTA VA     0700   70 69  220/  5/  6 1019.9F
RAPPAHANNOCK LGT 0700          130/  7/  7 1020.8F
STINGRAY PT      0700   69 69  210/  2/  2 1020.7F   1
YORK RVR RNG VA  0700   71     140/  6/  7 1019.6F
YORKTOWN VA      0700   70 71  130/  2/  3 1019.9F
JAMESTOWN VA     0800   70 74   70/  2/  4   N/A     0
DOMINION TERM VA 0700   71     100/  3/  5 1020.0F
KIPTOPEKE VA     0700      70  120/  7/  8   N/A
CHES BAY BRIDGE  0700   70 63  110/  5/  7 1019.9F
CAPE HENRY VA    0700   69     130/  4/  6   N/A
CHESAPEAKE LGHT  0700   69     100/  9/  9 1020.8F
WILLOUBY STN VA  0700   70     120/  5/  6 1020.9F
CAPE HENRY BUOY  0712      68                N/A     3/ 8
1ST LANDING BUOY 0800   69 69  100/  6/  6 1019.8F   1/ 4
CAPE CHARLES BUO 0726      69                N/A     3/ 7   2/ 7
OFFSHORE WE BUOY 0721      70                N/A     3/ 7   3/ 7
64NM E OF VA BCH 0750   69 64  120/  6/  6 1019.8F   3/ 8   3/ 8
DUCK PIER NC     0700   68 60   90/  7/  8 1019.1F
44100 DUCK FRF   0724      70                N/A     3/ 8
44056 DUCK FRF   0711      67                N/A     3/ 8
OREGON INLET NC  0700   71 77   80/  4/  5 1019.5F
HATTERAS NC      0700   76 76  140/  7/ 10 1018.7F
DIAMOND SHLS NC  0750   78 79  140/ 16/ 17 1018.5F   4/ 8   2/ 8
CAPE LOOKOUT NC1F1C2F2C3F3C4F4C5F5C6F6C7F7C8M1C9!


USA.gov is the U.S. government's official web portal to all federal, state and local government web resources and services.